Regional Weather Roundup
Issued by NWS

Home | Current Version | Previous Version | Graphics & Text | Print | Product List | Glossary On
Versions: 1 2 3 4 5 6 7 8 9 10 11 12 13 14 15 16 17 18 19 20 21 22 23 24 25 26 27 28 29 30 31 32 33 34 35 36 37 38 39 40 41 42 43 44 45 46 47 48 49 50
968
ASUS43 KDTX 131410
RWRMI
MICHIGAN HOURLY REGIONAL WEATHER ROUNDUP
NATIONAL WEATHER SERVICE DETROIT/PONTIAC MI
900 AM EST SAT FEB 13 2016

NOTE: "FAIR" INDICATES FEW OR NO CLOUDS BELOW 12,000 FEET WITH NO
SIGNIFICANT WEATHER AND/OR OBSTRUCTION TO VISIBILITY.

MIZ047>049-052>055-059>063-066>070-074>076-081>083-131500-
SOUTHEAST LOWER MICHIGAN

CITY           SKY/WX    TMP DP  RH WIND       PRES   REMARKS
ADRIAN         SUNNY      4  -4  69 W8        30.43R WCI  -9
ALMA           FLURRIES   6   2  85 CALM      30.41R
ANN ARBOR      MOSUNNY    2  -4  76 W5        30.41R WCI  -8
BAD AXE        MOSUNNY   -3 -10  69 W6        30.40R WCI -15
CARO           CLOUDY    -4 -11  71 CALM      30.40S
DETROIT CITY   MOSUNNY    6  -4  63 NW8       30.42R WCI  -7
DETROIT        MOSUNNY    5  -3  69 W6        30.43R WCI  -6
FLINT          CLOUDY     5  -5  63 N6        30.40R WCI  -6
GROSSE ILE     MOSUNNY    7  -2  66 W3        30.42R
HILLSDALE      CLOUDY     4  -3  72 W7        30.39R WCI  -8
HOWELL         MOSUNNY    5  -1  75 CALM      30.38R

CITY           SKY/WX    TMP DP  RH WIND       PRES   REMARKS
JACKSON        SUNNY      3  -4  72 W8        30.40R WCI -10
LAMBERTVILLE   SUNNY      6  -4  64 W7        30.45R WCI  -6
LANSING        SUNNY      8  -1  66 W13       30.40R WCI  -8
LAPEER         CLOUDY    -3  -6  87 CALM      30.40R
MASON          SUNNY      6  -2  72 W7        30.40R WCI  -6
MONROE         SUNNY      6  -4  63 W7        30.43R WCI  -6
MT. CLEMENS    MOSUNNY    3  -5  70 NW6       30.40R WCI  -8
PONTIAC        PTSUNNY    1  -5  75 W5        30.37R WCI  -9
PORT HOPE        N/A      3  -4  72 NW16G31   30.37R WCI -16
PORT HURON     CLOUDY     0  -9  65 NW8       30.41R WCI -15
TRI CITIES     CLOUDY     1  -9  62 N5        30.43R WCI  -9
MIDLAND        PTSUNNY   -1 -11  63 N3        30.43R
TROY           MOSUNNY    6  -3  67 CALM      30.42S
SAGINAW HB     CLOUDY     3  -4  72 NW5       30.42R WCI  -6
$$
MIZ043>046-050>051-056>058-064>065-071>073-077>080-131500-
SOUTHWEST LOWER MICHIGAN

CITY           SKY/WX    TMP DP  RH WIND       PRES   REMARKS
BATTLE CREEK   LGT SNOW   6   1  80 W8        30.43R WCI  -7
BENTON HARBOR  LGT SNOW  13   5  70 NW14G24   30.49R VSB 3/4 WCI  -2
BIG RAPIDS     LGT SNOW   8   4  82 W8        30.37R WCI  -4
COLDWATER      CLOUDY     5   1  81 W8        30.44R WCI  -8
FREMONT        LGT SNOW   9   5  82 NW8       30.43R WCI  -3
HOLLAND        LGT SNOW  13   7  77 NW9       30.46R WCI   1
GRAND RAPIDS   FLURRIES   9   3  77 NW8       30.43R WCI  -3
IONIA          FAIR      10   2  69 W12       30.40R WCI  -5
KALAMAZOO      LGT SNOW   7   1  76 W6        30.45R WCI  -3
LUDINGTON      LGT SNOW  10   2  72 NW12G20   30.45R WCI  -5
MARSHALL       CLOUDY     6   1  78 W8        30.42R WCI  -7
MOUNT PLEASANT LGT SNOW   2  -4  74 NE3       30.40R
MUSKEGON       LGT SNOW  11   5  77 N9        30.46R VSB 3/4 WCI  -2
SOUTH HAVEN    CLOUDY    13   4  67 NW13G24   30.47R HAZE    WCI  -1
$$
MIZ016>042-131500-
NORTHERN LOWER MICHIGAN

CITY           SKY/WX    TMP DP  RH WIND       PRES   REMARKS
ALPENA         SUNNY    -10 -15  78 W7        30.42R WCI -25
BEAVER ISLAND  PTSUNNY   -1  -6  80 E5        30.41R WCI -12
BELLAIRE       LGT SNOW  -8 -13  75 CALM      30.44R
CADILLAC       LGT SNOW  -2  -6  81 NE3       30.32R
CHARLEVOIX     MOSUNNY   -7 -14  71 SE9       30.44R WCI -24
FRANKFORT      CLOUDY    10   1  65 NW10G23   30.41R HAZE    WCI  -3
GAYLORD        CLOUDY   -19 -21  90 CALM      30.33R
GRAYLING       CLOUDY   -20 -26  72 CALM      30.37R
HARBOR SPRINGS MOSUNNY  -10 -16  75 CALM      30.42R
HOUGHTON LAKE  CLOUDY    -8 -14  74 NE3       30.37R
MANISTEE       CLOUDY    10   1  67 NW18G28   30.41R VSB 3/4 WCI  -8
OSCODA         SUNNY     -7 -15  68 NW9       30.42R WCI -24
PELLSTON       SUNNY    -19 -23  81 CALM      30.43R
ROGERS CITY    LGT SNOW  -3 -11  70 NW8       30.42R WCI -18
TRAVERSE CITY  LGT SNOW   0  -6  76 VRB6      30.40R VSB 1   WCI -12
$$
MIZ007>008-015-131500-
EASTERN UPPER MICHIGAN

CITY           SKY/WX    TMP DP  RH WIND       PRES   REMARKS
KINROSS        SUNNY    -11 -17  77 CALM      30.41R
MACKINAC ISLAN SUNNY     -8 -18  60 CALM      30.41S
NEWBERRY       LGT SNOW -14 -17  85 CALM      30.39R
S. S. MARIE    CLOUDY   -12 -24  55 CALM      30.41R
MUNISING         N/A      8   2  76 N15       30.40R WCI  -9
$$
MIZ004>006-011>014-085-131500-
CENTRAL UPPER MICHIGAN

CITY           SKY/WX    TMP DP  RH WIND       PRES   REMARKS
MANISTIQUE     LGT SNOW  -1  -6  81 CALM      30.40R
ESCANABA       CLEAR      1  -8  66 NW14      30.45R WCI -17
MENOMINEE      CLEAR     -4  -9  77 NW6       30.51R WCI -16
SAWYER-GWINN   FLURRIES  -4  -8  84 W9        30.37R WCI -20
$$
MIZ001>003-009>011-084-131500-
WESTERN UPPER MICHIGAN

CITY           SKY/WX    TMP DP  RH WIND       PRES   REMARKS
IRON MOUNTAIN  PTCLDY    -9 -14  78 NW5       30.43R HAZE    WCI -20
HOUGHTON       LGT SNOW   0  -8  69 NW16      30.42S WCI -20
COPPER HARBOR    N/A      4  -1  80 N24G31    30.45R WCI -19
IRONWOOD       CLOUDY    -4 -11  71 SW13      30.46R WCI -23
$$

ABBREVIATIONS USED IN REMARKS
   TC - TEMPERATURE IN CELSIUS
  WCI - WIND CHILL INDEX
   HX - HEAT INDEX
  VSB - VISIBILITY





USA.gov is the U.S. government's official web portal to all federal, state and local government web resources and services.